| time (UTC) | temp F | wind direction | speed MPH | gust MPH | rain 1hr in | rain 24hr in | rain mn in | humidity % | barometer mb |
| 20260903230650 | 86 | 117 | 7.0 | 14.0 | 0.00 | 0.00 | 0.00 | 13 | 1015.7 |
| 20260903230149 | 86 | 209 | 6.0 | 15.0 | 0.00 | 0.00 | 0.00 | 13 | 1015.7 |
| 20260903225650 | 86 | 180 | 6.0 | 15.0 | 0.00 | 0.00 | 0.00 | 13 | 1015.6 |
| 20260903225148 | 85 | 160 | 7.0 | 15.0 | 0.00 | 0.00 | 0.00 | 11 | 1015.8 |
| 20260903224648 | 86 | 141 | 7.0 | 15.0 | 0.00 | 0.00 | 0.00 | 10 | 1015.8 |
| 20260903224149 | 86 | 173 | 7.0 | 15.0 | 0.00 | 0.00 | 0.00 | 10 | 1015.9 |
| 20260903223650 | 86 | 135 | 6.0 | 14.0 | 0.00 | 0.00 | 0.00 | 9 | 1016.0 |
| 20260903222646 | 86 | 172 | 6.0 | 14.0 | 0.00 | 0.00 | 0.00 | 9 | 1016.1 |
| 20260903222146 | 86 | 82 | 5.0 | 16.0 | 0.00 | 0.00 | 0.00 | 9 | 1016.1 |
| 20260903221648 | 86 | 274 | 6.0 | 17.0 | 0.00 | 0.00 | 0.00 | 9 | 1016.2 |
| 20260903221144 | 86 | 203 | 7.0 | 19.0 | 0.00 | 0.00 | 0.00 | 9 | 1016.2 |
| 20260903220643 | 86 | 138 | 7.0 | 19.0 | 0.00 | 0.00 | 0.00 | 9 | 1016.2 |
| 20260903220142 | 86 | 147 | 7.0 | 18.0 | 0.00 | 0.00 | 0.00 | 9 | 1016.1 |
| 20260903215142 | 86 | 198 | 6.0 | 18.0 | 0.00 | 0.00 | 0.00 | 9 | 1016.2 |
| 20260903214640 | 86 | 134 | 7.0 | 15.0 | 0.00 | 0.00 | 0.00 | 9 | 1016.1 |
| 20260903214139 | 86 | 251 | 7.0 | 19.0 | 0.00 | 0.00 | 0.00 | 9 | 1016.4 |
| 20260903213636 | 86 | 158 | 7.0 | 19.0 | 0.00 | 0.00 | 0.00 | 9 | 1016.2 |
| 20260903213138 | 86 | 200 | 8.0 | 19.0 | 0.00 | 0.00 | 0.00 | 9 | 1016.4 |
| 20260903212636 | 86 | 255 | 8.0 | 25.0 | 0.00 | 0.00 | 0.00 | 10 | 1016.5 |
| 20260903212136 | 86 | 147 | 7.0 | 25.0 | 0.00 | 0.00 | 0.00 | 8 | 1016.4 |
| 20260903210625 | 86 | 352 | 5.0 | 14.0 | 0.00 | 0.00 | 0.00 | 11 | 1016.4 |
| 20260903210119 | 86 | 279 | 5.0 | 19.0 | 0.00 | 0.00 | 0.00 | 11 | 1016.2 |
| 20260903205107 | 85 | 231 | 9.0 | 19.0 | 0.00 | 0.00 | 0.00 | 12 | 1016.5 |
| 20260903204601 | 85 | 172 | 9.0 | 26.0 | 0.00 | 0.00 | 0.00 | 12 | 1016.4 |
| 20260903204055 | 85 | 240 | 9.0 | 26.0 | 0.00 | 0.00 | 0.00 | 13 | 1016.5 |
| 20260903203549 | 86 | 202 | 7.0 | 20.0 | 0.00 | 0.00 | 0.00 | 12 | 1016.6 |
| 20260903202537 | 86 | 179 | 7.0 | 18.0 | 0.00 | 0.00 | 0.00 | 12 | 1016.5 |
| 20260903202030 | 86 | 96 | 6.0 | 16.0 | 0.00 | 0.00 | 0.00 | 11 | 1016.5 |
| 20260903201017 | 86 | 209 | 7.0 | 22.0 | 0.00 | 0.00 | 0.00 | 9 | 1016.6 |
| 20260903200511 | 86 | 153 | 6.0 | 18.0 | 0.00 | 0.00 | 0.00 | 8 | 1016.7 |
| 20260903200005 | 87 | 146 | 5.0 | 16.0 | 0.00 | 0.00 | 0.00 | 8 | 1016.7 |
| 20260903194954 | 86 | 261 | 7.0 | 17.0 | 0.00 | 0.00 | 0.00 | 5 | 1016.9 |
| 20260903194447 | 85 | 245 | 8.0 | 17.0 | 0.00 | 0.00 | 0.00 | 5 | 1017.0 |
| 20260903193942 | 85 | 168 | 7.0 | 18.0 | 0.00 | 0.00 | 0.00 | 3 | 1016.9 |
| 20260903193435 | 85 | 252 | 6.0 | 18.0 | 0.00 | 0.00 | 0.00 | 2 | 1017.0 |
| 20260903192929 | 85 | 198 | 5.0 | 16.0 | 0.00 | 0.00 | 0.00 | 1 | 1016.9 |
| 20260903191411 | 84 | 149 | 7.0 | 18.0 | 0.00 | 0.00 | 0.00 | 2 | 1017.3 |
| 20260903190905 | 83 | 172 | 8.0 | 19.0 | 0.00 | 0.00 | 0.00 | 4 | 1017.2 |
| 20260903190358 | 83 | 211 | 8.0 | 19.0 | 0.00 | 0.00 | 0.00 | 4 | 1017.3 |
| 20260903185853 | 83 | 157 | 8.0 | 23.0 | 0.00 | 0.00 | 0.00 | 6 | 1017.5 |
| 20260903185347 | 83 | 132 | 7.0 | 23.0 | 0.00 | 0.00 | 0.00 | 6 | 1017.5 |
| 20260903184841 | 83 | 98 | 6.0 | 14.0 | 0.00 | 0.00 | 0.00 | 5 | 1017.6 |
| 20260903184335 | 83 | 150 | 6.0 | 22.0 | 0.00 | 0.00 | 0.00 | 5 | 1017.5 |
| 20260903183829 | 82 | 193 | 6.0 | 22.0 | 0.00 | 0.00 | 0.00 | 8 | 1017.6 |
| 20260903183323 | 82 | 166 | 5.0 | 17.0 | 0.00 | 0.00 | 0.00 | 7 | 1017.6 |
| 20260903182817 | 82 | 107 | 6.0 | 16.0 | 0.00 | 0.00 | 0.00 | 8 | 1017.6 |
| 20260903182311 | 82 | 153 | 6.0 | 19.0 | 0.00 | 0.00 | 0.00 | 9 | 1017.8 |
| 20260903181808 | 82 | 154 | 5.0 | 19.0 | 0.00 | 0.00 | 0.00 | 10 | 1017.7 |
| 20260903181259 | 81 | 89 | 6.0 | 17.0 | 0.00 | 0.00 | 0.00 | 10 | 1017.8 |
| 20260903180753 | 81 | 129 | 6.0 | 17.0 | 0.00 | 0.00 | 0.00 | 9 | 1017.7 |
| 20260903175741 | 81 | 252 | 6.0 | 16.0 | 0.00 | 0.00 | 0.00 | 10 | 1017.8 |
| 20260903174730 | 81 | 200 | 6.0 | 15.0 | 0.00 | 0.00 | 0.00 | 10 | 1017.8 |
| 20260903174223 | 80 | 209 | 7.0 | 15.0 | 0.00 | 0.00 | 0.00 | 10 | 1017.8 |
| 20260903173717 | 80 | 96 | 6.0 | 14.0 | 0.00 | 0.00 | 0.00 | 10 | 1017.8 |
| 20260903173211 | 80 | 82 | 5.0 | 14.0 | 0.00 | 0.00 | 0.00 | 9 | 1017.8 |
| 20260903172705 | 80 | 208 | 7.0 | 18.0 | 0.00 | 0.00 | 0.00 | 10 | 1018.0 |
| 20260903172159 | 80 | 53 | 7.0 | 18.0 | 0.00 | 0.00 | 0.00 | 9 | 1018.0 |
| 20260903171653 | 80 | 145 | 7.0 | 17.0 | 0.00 | 0.00 | 0.00 | 9 | 1018.0 |
| 20260903170641 | 80 | 114 | 5.0 | 17.0 | 0.00 | 0.00 | 0.00 | 9 | 1017.8 |
| 20260903170135 | 80 | 169 | 6.0 | 14.0 | 0.00 | 0.00 | 0.00 | 9 | 1017.8 |
| 20260903165629 | 79 | 165 | 7.0 | 15.0 | 0.00 | 0.00 | 0.00 | 9 | 1017.8 |
| 20260903165123 | 79 | 122 | 6.0 | 17.0 | 0.00 | 0.00 | 0.00 | 10 | 1017.8 |
| 20260903164111 | 79 | 101 | 6.0 | 17.0 | 0.00 | 0.00 | 0.00 | 10 | 1017.8 |
| 20260903163605 | 78 | 258 | 7.0 | 15.0 | 0.00 | 0.00 | 0.00 | 10 | 1017.8 |
| 20260903162553 | 78 | 148 | 7.0 | 17.0 | 0.00 | 0.00 | 0.00 | 10 | 1017.8 |
| 20260903161541 | 78 | 160 | 7.0 | 20.0 | 0.00 | 0.00 | 0.00 | 10 | 1018.0 |
| 20260903161035 | 77 | 120 | 5.0 | 20.0 | 0.00 | 0.00 | 0.00 | 10 | 1017.8 |
| 20260903160528 | 78 | 178 | 4.0 | 12.0 | 0.00 | 0.00 | 0.00 | 10 | 1018.0 |
| 20260903160023 | 77 | 203 | 5.0 | 18.0 | 0.00 | 0.00 | 0.00 | 10 | 1017.8 |
| 20260903155517 | 77 | 353 | 6.0 | 18.0 | 0.00 | 0.00 | 0.00 | 10 | 1017.8 |
| 20260903155011 | 76 | 119 | 5.0 | 13.0 | 0.00 | 0.00 | 0.00 | 12 | 1017.7 |
| 20260903154508 | 76 | 87 | 6.0 | 18.0 | 0.00 | 0.00 | 0.00 | 12 | 1017.7 |
| 20260903153508 | 75 | 145 | 5.0 | 17.0 | 0.00 | 0.00 | 0.00 | 12 | 1017.7 |
| 20260903153008 | 75 | 251 | 4.0 | 14.0 | 0.00 | 0.00 | 0.00 | 13 | 1017.7 |
| 20260903152508 | 75 | 323 | 3.0 | 16.0 | 0.00 | 0.00 | 0.00 | 13 | 1017.7 |
| 20260903152010 | 74 | 47 | 4.0 | 16.0 | 0.00 | 0.00 | 0.00 | 13 | 1017.8 |
| 20260903151506 | 74 | 95 | 3.0 | 13.0 | 0.00 | 0.00 | 0.00 | 12 | 1017.7 |
| 20260903151007 | 74 | 294 | 2.0 | 13.0 | 0.00 | 0.00 | 0.00 | 12 | 1017.8 |
| 20260903150507 | 74 | 130 | 2.0 | 8.0 | 0.00 | 0.00 | 0.00 | 11 | 1018.0 |
| 20260903150008 | 73 | 349 | 2.0 | 8.0 | 0.00 | 0.00 | 0.00 | 11 | 1017.8 |
| 20260903144505 | 72 | 225 | 4.0 | 13.0 | 0.00 | 0.00 | 0.00 | 10 | 1018.0 |
| 20260903144002 | 72 | 120 | 4.0 | 12.0 | 0.00 | 0.00 | 0.00 | 11 | 1017.8 |
| 20260903143502 | 72 | 0.0 | 0.0 | 0.00 | 0.00 | 0.00 | 11 | 1017.7 | |
| 20260903143005 | 72 | 0.0 | 0.0 | 0.00 | 0.00 | 0.00 | 10 | 1017.5 |